Weather History for Phnom Penh, Cambodia

Change the Weather History Date:

Sunday, January 20, 2013

  Actual Average Record
Temperature  
Mean Temperature 78 °F -  
Max Temperature 89 °F 87 °F 93 °F (2002)
Min Temperature 68 °F 73 °F 68 °F (2003)
Cooling Degree Days 14    
Growing Degree Days 28 (Base 50)    
Moisture  
Dew Point 63 °F    
Average Humidity 53    
Maximum Humidity 69    
Minimum Humidity 38    
Precipitation  
Precipitation 0.00 in - - ()
Sea Level Pressure  
Sea Level Pressure 29.91 in    
Wind  
Wind Speed 5 mph ()    
Max Wind Speed 10 mph    
Max Gust Speed -    
Visibility 5.5 miles    
Events      
Averages and records for this station are not official NWS values.
T = Trace of Precipitation, MM = Missing Value Source: Averaged Metar Reports

Daily Weather History Graph

Daily Weather History Graph

Search for Another Location

Airport:

Trip Planner

Search our weather history database for the weather conditions in past years. The results will help you decide how hot, cold, wet, or windy it might be!

Date:

Astronomy

Jan. 20, 2013 Rise Set
Actual Time 6:25 AM ICT 5:58 PM ICT
Civil Twilight 6:02 AM ICT 6:20 PM ICT
Nautical Twilight 5:36 AM ICT 6:46 PM ICT
Astronomical Twilight 5:11 AM ICT 7:12 PM ICT
Moon 12:32 PM ICT (1/20) 12:37 AM ICT (1/20)
Length of Visible Light 12h 17m
Length of Day
11h 33m
First Quarter, 61% of the Moon is Illuminated
Jan 20
First Quarter
Jan 27
Full
Feb 3
Last Quarter
Feb 10
New
Feb 18
First Quarter

Hourly Weather History & Observations

Time (ICT) Temp. Heat Index Dew Point Humidity Pressure Visibility Wind Dir Wind Speed Gust Speed Precip Events Conditions
12:00 AM 75.2 °F - 57.2 °F 53% 29.92 in 5.0 mi NNW 3.5 mph - N/A   Partly Cloudy
12:30 AM 75.2 °F - 57.2 °F 53% 29.92 in 5.0 mi NNW 4.6 mph - N/A   Partly Cloudy
1:00 AM 75.2 °F - 57.2 °F 53% 29.89 in 5.0 mi NNW 4.6 mph - N/A   Partly Cloudy
6:00 AM 73.4 °F - 62.6 °F 69% 29.92 in 5.6 mi North 4.6 mph - N/A   Unknown
7:00 AM 72 °F - 63 °F 66% 29.97 in 3 mi North 2.2 mph - -   Mist
7:00 AM 73.4 °F - 62.6 °F 69% 29.95 in 5.6 mi North 6.9 mph - N/A   Unknown
7:30 AM 73.4 °F - 62.6 °F 69% 29.95 in 5.6 mi North 5.8 mph - N/A   Unknown
8:00 AM 75.2 °F - 62.6 °F 65% 29.95 in - North 5.8 mph - N/A   Clear
8:30 AM 77.0 °F - 62.6 °F 61% 29.98 in - North 6.9 mph - N/A   Clear
9:00 AM 78.8 °F - 62.6 °F 57% 29.98 in - NNE 9.2 mph - N/A   Clear
9:30 AM 78.8 °F - 62.6 °F 57% 29.98 in - North 9.2 mph - N/A   Clear
10:00 AM 80.6 °F 81.8 °F 62.6 °F 54% 29.98 in - NNE 6.9 mph - N/A   Clear
10:30 AM 82.4 °F 83.9 °F 64.4 °F 54% 29.98 in - NNE 6.9 mph - N/A   Clear
11:00 AM 82.4 °F 83.9 °F 64.4 °F 54% 29.98 in - North 6.9 mph - N/A   Clear
11:30 AM 82.4 °F 83.9 °F 64.4 °F 54% 29.95 in - North 6.9 mph - N/A   Clear
12:00 PM 82.4 °F 83.4 °F 62.6 °F 51% 29.95 in - North 8.1 mph - N/A   Clear
12:30 PM 86.0 °F 87.3 °F 64.4 °F 48% 29.95 in - North 8.1 mph - N/A   Clear
1:00 PM 86.0 °F 86.6 °F 62.6 °F 45% 29.89 in - NNW 10.4 mph - N/A   Clear
1:30 PM 87.8 °F 87.6 °F 60.8 °F 40% 29.89 in - North 9.2 mph - N/A   Clear
2:00 PM 87.8 °F 87.6 °F 60.8 °F 40% 29.86 in - North 9.2 mph - N/A   Clear
2:30 PM 87.8 °F 88.5 °F 62.6 °F 43% 29.86 in - NNW 9.2 mph - N/A   Clear
3:00 PM 89.6 °F 91.1 °F 64.4 °F 43% 29.83 in - NNE 8.1 mph - N/A   Clear
3:30 PM 87.8 °F 88.5 °F 62.6 °F 43% 29.83 in - North 6.9 mph - N/A   Clear
4:00 PM 89.6 °F 90.1 °F 62.6 °F 40% 29.83 in - NNE 6.9 mph - N/A   Clear
4:30 PM 89.6 °F 89.5 °F 60.8 °F 38% 29.86 in - NNE 5.8 mph - N/A   Clear
5:00 PM 89.6 °F 89.5 °F 60.8 °F 38% 29.86 in - North 5.8 mph - N/A   Clear
5:30 PM 87.8 °F 88.5 °F 62.6 °F 43% 29.86 in 6.2 mi North 6.9 mph - N/A   Partly Cloudy
6:00 PM 86.0 °F 86.6 °F 62.6 °F 45% 29.86 in 6.2 mi North 3.5 mph - N/A   Partly Cloudy
6:30 PM 86.0 °F 87.3 °F 64.4 °F 48% 29.86 in 6.2 mi North 2.3 mph - N/A   Partly Cloudy
7:00 PM 84.2 °F 86.6 °F 66.2 °F 55% 29.89 in 6.2 mi North 2.3 mph - N/A   Partly Cloudy
7:30 PM 84.2 °F 85.6 °F 64.4 °F 51% 29.89 in 5.6 mi Variable 1.2 mph - N/A   Partly Cloudy
8:00 PM 84.2 °F 86.6 °F 66.2 °F 55% 29.89 in 5.6 mi Calm Calm - N/A   Partly Cloudy
8:30 PM 84.2 °F 86.6 °F 66.2 °F 55% 29.89 in 5.6 mi NNW 3.5 mph - N/A   Partly Cloudy
9:00 PM 82.4 °F 84.6 °F 66.2 °F 58% 29.89 in 5.6 mi NNW 2.3 mph - N/A   Partly Cloudy
9:30 PM 82.4 °F 84.6 °F 66.2 °F 58% 29.89 in 5.6 mi NNW 3.5 mph - N/A   Partly Cloudy
10:00 PM 80.6 °F 83.2 °F 68.0 °F 65% 29.89 in 5.6 mi North 3.5 mph - N/A   Partly Cloudy
10:30 PM 80.6 °F 83.2 °F 68.0 °F 65% 29.89 in 5.6 mi NNW 2.3 mph - N/A   Partly Cloudy
11:00 PM 78.8 °F - 66.2 °F 65% 29.89 in 5.6 mi Calm Calm - N/A   Partly Cloudy
11:30 PM 78.8 °F - 66.2 °F 65% 29.89 in 5.6 mi Calm Calm - N/A   Partly Cloudy